Theta_e
315 315 315 315 314 314 314 314 315 314 314 314 315 315 315 315 316 316 316 316 316 316 317 316 317 317 310 294 298 322 339 338 311 305 301 300 296 294 295 292 292 292 294 295 298 297 295
314 314 314 315 314 314 314 314 314 315 315 315 315 315 315 315 315 315 315 316 316 315 316 316 317 317 303 291 305 327 320 311 307 302 299 299 298 297 294 292 293 295 293 296 296 296 295
314 314 314 314 314 314 314 314 314 314 315 315 315 315 315 314 315 315 315 315 315 315 316 317 318 316 301 297 312 323 316 309 311 304 301 302 302 298 296 293 295 295 292 295 295 294 295
313 314 314 314 314 314 314 314 314 313 314 315 315 314 314 314 314 314 315 315 315 315 317 320 320 312 296 304 313 316 316 315 312 307 304 306 304 298 294 295 296 292 291 289 295 297 297
313 313 313 313 313 313 313 313 313 313 313 314 314 314 314 314 314 314 314 314 315 316 319 321 310 308 302 318 310 312 319 313 310 310 308 311 300 294 295 290 288 289 288 288 293 295 295
312 313 313 313 313 313 312 313 313 313 313 314 314 314 313 313 313 314 313 314 317 317 318 318 316 303 306 307 309 311 313 315 308 306 303 299 294 291 289 288 284 286 286 289 289 294 296
312 312 313 313 312 312 312 312 312 313 313 313 314 313 313 313 313 312 308 307 300 300 311 300 302 306 308 313 310 305 309 308 306 303 295 294 292 289 291 292 291 290 289 289 292 295 300
311 311 312 312 312 312 312 312 312 312 312 313 313 313 313 313 312 312 304 303 302 301 296 305 309 310 313 312 307 305 309 302 301 296 298 296 292 297 296 294 293 291 290 290 294 296 304
310 310 311 311 311 311 311 311 312 312 312 312 312 312 312 312 312 306 302 307 308 303 295 300 307 308 308 311 306 305 307 302 299 296 295 293 298 301 298 293 293 290 289 290 292 297 298
310 310 310 310 310 310 310 310 310 311 312 312 311 311 311 311 304 301 305 309 307 303 292 298 303 307 306 305 301 307 307 304 299 296 297 295 299 300 296 295 295 290 295 296 296 292 288
309 309 309 309 310 310 309 309 310 311 311 311 311 311 311 310 301 305 308 308 306 306 286 302 303 306 302 300 301 303 306 304 298 298 296 296 298 298 297 297 297 296 298 296 295 290 288
309 308 309 309 309 309 309 309 310 310 310 310 310 311 310 306 301 308 308 305 304 290 286 299 301 299 298 299 300 303 303 305 303 298 298 297 302 302 301 302 300 300 296 294 291 288 286
309 308 308 308 309 308 309 309 309 310 309 309 309 309 305 306 298 304 306 303 289 286 300 297 296 298 297 296 298 301 299 297 294 290 291 298 300 304 305 299 300 297 291 285 286 285 285
309 309 308 308 308 308 309 309 309 309 309 309 308 306 306 307 301 306 305 294 285 293 296 301 297 297 296 296 297 298 297 294 297 296 293 292 290 300 306 300 295 293 291 287 282 282 285
309 309 308 308 308 308 308 308 308 308 308 307 306 300 302 307 307 306 300 287 285 294 301 299 296 292 294 298 297 297 295 294 299 298 293 292 293 301 305 302 298 293 292 293 288 287 285
309 309 309 308 308 308 308 308 308 308 308 307 297 301 305 310 308 304 294 289 294 302 303 300 293 296 292 296 294 293 297 301 301 302 299 296 290 297 304 302 300 297 299 289 288 283 282
310 309 309 308 308 308 308 308 308 308 307 305 298 300 307 308 307 298 288 290 297 304 304 300 297 296 296 296 295 296 298 300 302 302 301 296 291 293 294 295 293 294 292 292 290 288 284
310 309 309 308 308 307 307 308 308 308 306 299 293 295 307 305 297 293 292 297 302 304 305 300 299 298 297 298 296 296 298 299 305 303 296 297 292 287 290 296 297 296 293 290 286 285 288
310 309 309 308 308 308 308 308 308 307 306 295 292 293 305 304 292 290 295 299 302 302 300 300 300 301 301 296 292 298 299 303 303 301 297 296 289 284 287 290 294 293 296 295 290 289 288
310 309 309 308 308 308 307 308 308 307 307 297 296 293 298 297 295 294 292 294 296 302 300 301 299 300 298 295 296 295 298 303 304 304 308 302 290 288 285 287 291 290 294 295 290 284 285
311 310 309 308 308 307 307 307 308 307 306 298 294 292 294 291 293 293 293 294 295 295 299 298 296 297 295 292 293 294 298 300 301 304 298 293 289 289 290 292 295 294 294 293 291 290 287
310 310 309 308 308 307 307 306 308 307 305 298 293 292 293 292 293 292 293 291 294 295 295 295 294 298 296 292 293 294 296 294 294 297 295 293 288 291 291 295 296 293 295 294 293 293 291
309 310 309 309 308 307 306 305 307 308 303 296 296 294 294 291 292 291 292 294 296 295 298 298 298 295 294 295 296 295 295 296 296 294 293 292 290 288 285 292 291 287 292 293 292 293 292
309 309 309 309 308 307 306 304 307 307 300 296 295 294 291 288 291 293 296 296 295 294 292 297 296 293 296 297 295 293 292 292 293 293 294 292 290 288 285 288 281 292 295 296 294 295 301
309 308 309 308 307 307 306 303 306 307 305 294 294 295 292 288 292 294 295 294 294 293 292 294 297 296 294 292 289 287 287 287 290 292 291 292 289 285 283 283 287 292 295 293 292 292 301
310 309 309 308 308 307 306 303 305 306 305 295 294 295 294 290 289 296 293 292 289 288 291 293 295 294 292 288 286 282 283 286 286 288 293 291 290 286 283 281 280 288 297 303 299 287 302
309 309 309 308 308 307 306 303 304 305 305 294 292 294 294 290 292 292 290 289 290 287 287 289 291 290 290 284 283 282 283 287 283 283 285 285 285 283 282 282 285 293 297 303 286 288 302
309 309 309 308 308 307 306 304 304 304 305 295 292 294 294 290 291 294 295 290 290 288 286 289 289 289 286 284 283 283 282 285 283 286 286 286 284 283 282 281 280 296 299 293 294 300 302
309 309 309 308 308 307 306 305 304 304 304 297 292 296 295 292 292 293 295 296 295 294 290 288 288 288 288 285 284 284 284 284 283 282 289 284 288 286 287 285 292 296 300 303 303 301 302
Wind_Speed
10 9 9 9 10 11 12 13 13 13 14 15 15 16 17 17 16 16 15 14 13 13 12 10 9 8 3 1 6 4 11 9 6 4 3 4 4 5 3 4 3 3 4 3 7 9 8
9 10 11 11 11 12 12 12 12 12 14 15 16 17 18 17 18 17 15 14 12 11 10 8 6 5 3 1 2 8 9 5 5 4 4 4 5 5 3 2 3 6 4 7 7 6 4
9 10 10 11 12 13 14 15 16 17 16 16 16 17 19 17 18 17 15 12 10 10 8 6 4 3 1 7 3 7 8 5 5 4 4 3 3 4 5 1 2 1 5 7 3 1 2
8 9 10 11 12 14 15 16 17 18 18 18 18 17 18 18 17 17 16 13 11 9 7 6 5 2 6 1 3 5 4 3 4 5 2 4 4 2 1 0 7 4 5 5 6 7 0
8 9 11 12 13 14 15 16 17 18 19 19 19 18 19 19 18 18 17 16 9 4 3 6 1 1 5 2 2 3 6 3 5 4 2 3 4 3 5 5 6 7 0 2 11 3 2
10 10 11 12 14 14 16 17 17 18 19 20 19 19 18 18 17 15 15 4 5 4 2 4 3 2 2 3 3 3 3 1 2 3 4 7 6 4 4 5 2 1 2 4 5 4 11
10 11 12 13 14 14 15 17 18 19 20 21 20 20 19 18 16 10 7 2 2 3 1 4 3 3 5 7 4 2 3 4 3 8 3 3 6 2 5 7 4 1 2 1 6 4 8
9 11 12 13 14 15 16 17 19 20 20 21 22 21 21 19 17 8 2 3 2 3 7 5 4 5 5 2 2 1 5 3 3 0 1 7 2 5 4 3 4 2 1 4 5 2 10
9 10 12 13 15 16 17 18 19 20 21 21 22 21 21 20 16 2 2 1 3 5 2 7 5 4 4 7 4 4 6 2 3 1 2 4 6 3 3 2 2 2 3 3 3 4 5
10 11 12 12 14 15 17 19 20 21 21 22 22 20 20 23 4 2 3 4 4 3 5 5 2 4 4 3 2 5 4 5 2 2 4 3 4 6 3 1 6 1 7 1 1 3 2
9 10 12 13 14 15 17 19 21 21 22 22 21 19 17 8 4 1 3 7 2 5 4 1 2 1 1 6 1 3 2 3 3 1 5 6 5 6 4 2 4 2 4 4 2 4 4
9 10 11 12 14 15 16 18 20 22 23 23 23 19 16 1 1 6 7 4 4 8 2 1 4 3 4 1 1 2 2 3 2 3 2 5 3 1 3 3 3 3 5 8 5 4 5
9 9 10 12 13 15 16 18 20 22 23 25 25 20 7 2 4 5 4 5 7 4 4 2 3 3 3 2 2 2 4 3 2 4 4 6 4 5 1 5 4 8 8 5 6 6 4
10 10 10 12 13 15 15 17 20 22 24 26 28 22 7 5 3 6 4 7 4 3 5 4 2 2 4 3 3 2 4 2 2 6 2 3 7 5 7 2 1 4 5 7 4 3 4
11 10 10 12 13 13 15 17 20 22 24 25 24 3 2 4 5 1 7 4 7 5 4 5 3 4 3 3 1 3 2 4 4 5 6 5 4 3 5 4 2 1 4 2 7 3 2
11 10 10 11 12 14 15 17 20 22 25 24 4 4 4 5 2 6 6 4 3 4 4 1 2 1 2 5 3 3 0 2 1 1 3 4 1 2 3 1 6 5 2 3 4 2 2
10 11 11 11 11 13 14 16 19 22 26 20 3 3 3 3 3 7 4 6 5 6 3 1 3 3 2 2 2 2 2 2 3 3 4 3 4 6 3 5 2 5 3 6 4 4 6
12 11 11 11 11 12 13 15 17 19 24 7 2 2 3 1 5 2 2 4 4 4 2 1 3 3 2 1 3 3 1 3 7 1 4 2 5 1 1 6 3 2 3 4 6 3 2
12 11 10 10 11 11 12 14 16 16 12 2 2 3 4 3 3 1 4 4 2 4 3 2 2 1 1 3 3 2 3 3 8 5 4 4 2 3 8 7 2 5 2 5 4 3 4
13 12 11 10 10 9 11 13 15 16 14 2 3 3 5 5 2 4 1 2 4 4 1 3 2 3 3 3 6 3 2 5 4 4 9 6 3 7 8 6 4 2 2 2 5 3 3
14 13 12 10 8 9 10 12 14 15 11 1 4 0 2 1 3 3 2 3 3 6 5 6 4 3 4 4 3 2 2 3 5 8 5 5 3 2 3 4 3 4 5 5 6 6 6
15 14 12 10 8 8 8 10 12 14 6 4 2 2 3 1 2 1 3 1 2 6 5 4 5 1 3 5 5 7 4 1 1 5 3 3 1 1 3 2 5 4 7 7 7 6 8
15 15 13 11 9 7 7 8 11 13 5 3 0 1 4 3 2 2 1 2 1 1 1 3 3 3 3 4 4 3 3 3 1 2 2 2 5 3 5 1 2 5 10 10 5 4 5
16 16 15 13 10 8 5 5 8 10 7 2 1 3 4 2 1 1 2 2 3 5 1 3 4 2 2 4 4 5 5 2 3 5 4 6 5 3 4 2 5 7 4 3 7 4 5
18 17 16 14 12 9 6 3 5 8 7 3 2 3 3 2 1 1 1 3 4 4 3 2 4 2 2 5 4 5 5 4 3 1 3 2 5 3 4 5 6 5 5 5 7 7 5
20 17 16 14 13 11 8 3 2 6 7 3 1 1 3 5 4 1 0 1 1 2 4 2 4 3 6 4 4 4 4 4 3 1 5 5 4 4 2 4 7 6 3 6 2 5 5
21 20 18 16 15 13 10 5 1 4 7 3 1 1 4 3 3 2 2 3 3 2 1 3 5 3 4 3 3 4 5 3 4 4 5 2 2 6 3 5 8 5 8 4 2 7 2
23 21 19 17 16 14 11 7 3 2 5 2 0 2 4 3 4 2 1 2 1 2 3 3 4 3 3 3 4 5 4 5 1 4 4 6 6 5 2 2 8 3 2 1 4 3 2
24 22 20 18 16 15 13 9 5 2 4 3 2 3 1 4 4 2 4 4 5 6 5 1 3 3 4 4 1 2 2 1 3 4 1 3 6 5 8 7 4 3 2 1 4 3 2
Wind_Direction
6 7 4 1 351 358 352 351 348 349 340 338 334 333 330 332 329 326 322 317 314 309 309 306 300 296 298 282 253 80 118 124 115 114 135 133 121 135 134 181 172 192 270 232 260 271 224
3 2 358 1 350 353 351 349 347 344 342 339 332 333 331 332 330 326 321 315 310 306 304 296 286 283 264 121 136 135 128 137 135 129 164 139 168 190 141 209 153 203 239 273 279 264 202
1 356 355 354 351 353 352 348 349 351 344 336 331 330 328 333 326 325 321 309 308 302 299 276 243 248 76 224 48 150 151 174 176 185 157 213 182 132 136 234 238 278 315 323 245 308 273
357 349 356 355 355 353 351 347 347 348 341 332 330 328 327 330 328 324 318 311 306 297 274 244 191 266 244 248 121 150 170 256 194 238 243 172 149 99 145 167 15 46 50 17 282 355 201
354 357 355 356 353 353 348 344 346 342 340 331 328 328 326 329 332 327 320 309 280 253 234 148 179 311 284 33 241 206 163 214 162 196 226 103 72 84 30 76 13 6 149 318 321 232 303
351 357 354 351 353 351 348 342 341 338 335 330 328 325 324 325 327 328 320 296 125 123 194 220 250 353 313 299 250 158 202 116 9 8 31 45 48 62 37 71 155 117 0 309 258 317 46
345 349 351 352 351 345 344 342 340 335 330 330 325 325 328 325 326 326 321 257 358 13 159 224 217 243 280 291 285 126 147 102 68 52 43 359 57 261 229 192 167 165 160 276 253 309 74
343 343 347 350 346 344 344 341 337 332 329 327 324 327 329 327 329 338 154 54 38 157 314 238 256 269 263 228 333 317 110 106 80 92 347 16 278 232 232 130 170 186 14 309 297 196 94
338 338 346 348 343 342 344 340 334 331 330 327 325 330 331 331 334 116 269 148 311 151 84 295 197 195 216 144 214 248 125 125 152 240 201 152 251 311 141 151 141 162 195 197 210 353 53
333 336 342 345 339 341 340 338 336 331 329 326 324 330 334 329 3 299 264 320 313 162 59 281 259 276 126 150 289 197 169 134 51 238 176 232 286 336 41 80 134 97 188 173 27 77 104
323 329 338 339 337 342 336 337 334 329 328 324 322 333 334 339 283 283 297 323 270 60 67 236 180 98 128 139 354 9 211 65 168 262 80 270 314 5 8 11 172 206 139 112 115 94 70
311 322 331 333 337 339 336 335 332 329 327 323 323 334 335 136 262 252 307 313 49 46 258 333 140 154 113 6 7 125 135 67 130 112 11 259 295 344 277 334 42 79 87 46 54 80 47
297 310 321 328 332 338 336 332 332 330 327 324 324 323 311 311 233 314 290 47 47 116 341 326 238 159 138 196 270 153 144 119 130 47 2 343 329 322 20 30 12 51 55 2 10 15 219
286 300 314 321 330 336 331 331 333 333 327 326 324 315 189 222 291 323 51 50 102 275 270 306 11 98 151 150 270 158 112 161 151 106 98 101 343 10 330 50 224 37 130 147 180 206 259
275 288 303 312 322 327 329 333 336 333 329 330 319 341 277 277 210 245 74 80 201 205 263 317 357 90 30 14 199 108 108 182 193 172 169 139 280 323 50 21 60 43 46 166 103 9 64
268 280 293 305 319 326 333 336 335 334 332 334 329 344 300 318 168 65 79 219 227 219 314 335 118 71 112 345 62 78 149 325 133 67 141 207 61 20 308 19 24 88 113 38 4 133 274
253 269 282 298 311 322 331 334 337 338 334 327 25 38 265 358 61 51 146 228 267 252 237 233 164 92 97 111 84 55 358 16 10 64 88 117 98 287 52 34 299 350 25 53 113 108 160
241 257 274 289 301 317 327 334 338 344 337 44 9 56 307 25 59 45 157 205 261 288 305 301 88 96 130 103 76 98 125 14 338 21 65 34 128 103 241 293 238 66 111 108 113 245 103
232 244 259 278 294 312 325 333 337 344 1 326 44 269 317 81 132 272 281 281 273 327 324 19 116 113 94 106 105 77 77 17 16 58 134 182 37 40 353 356 3 71 52 114 107 82 204
221 232 245 258 283 303 319 328 336 340 348 104 59 14 332 47 39 131 71 335 312 308 167 36 112 75 90 77 19 123 65 8 17 67 47 77 113 157 189 206 156 211 211 109 118 121 218
217 223 234 247 267 293 315 328 337 340 346 90 34 231 176 328 9 43 46 8 343 353 0 26 46 46 139 110 55 84 58 15 33 356 43 83 194 190 260 225 193 213 225 196 192 211 181
213 217 226 233 249 277 305 326 338 342 346 74 99 92 8 51 321 345 356 42 61 326 17 338 113 75 40 141 177 193 139 170 227 9 67 16 226 106 303 258 230 255 268 254 225 242 243
213 210 216 220 231 251 289 330 341 348 352 90 303 13 107 330 6 93 292 338 65 320 182 17 140 98 83 171 137 116 96 118 98 142 123 98 131 105 249 357 331 295 230 227 219 190 191
202 212 205 210 214 225 258 319 345 359 40 117 173 107 88 256 83 142 8 333 349 329 257 39 33 67 40 73 75 56 62 349 290 253 158 144 128 136 214 20 247 247 297 204 205 214 222
193 211 206 204 212 210 225 291 349 359 18 89 143 113 115 143 191 290 321 305 333 341 30 31 26 303 309 51 57 31 347 9 273 125 238 161 127 171 175 203 295 312 262 192 184 248 211
189 198 202 195 200 202 204 217 351 360 21 87 78 114 103 115 244 338 277 352 234 347 358 42 358 355 60 75 73 154 216 224 289 337 54 81 94 124 131 208 235 242 310 12 97 278 206
186 192 191 191 192 194 195 191 155 11 21 104 106 64 93 115 263 161 182 184 114 96 157 316 340 40 50 94 116 164 226 207 226 205 191 78 49 186 173 239 285 251 291 297 161 246 164
183 186 184 185 186 186 188 185 156 53 27 94 232 348 112 127 274 230 256 154 94 94 144 265 45 340 50 107 152 204 179 224 196 233 192 183 165 209 110 217 275 340 345 209 227 347 5
179 180 179 178 180 182 180 176 156 98 40 97 87 340 25 114 229 268 256 243 189 188 142 334 187 177 187 98 189 106 177 66 162 236 37 237 191 192 175 217 249 283 248 203 186 159 175